COSMOS 1275 DEB, 17792

Orbit data source: Space-Track

COSMOS 1275 DEB, 17792 is space debris in LEO originally from a launch on Thu, 04 Jun 1981 UTC launched from the Plesetsk Missile And Space Complex (PKMTR). Debris objects in space refer to the collection of defunct objects orbiting the Earth. Examples of debris include non-operational satellites, rocket bodies, and fragments generated from explosions, collisions, or faulty payload assembly.

Loading next visibility...
Identifier
17792, 1981-053LN
Orbit
LEO
Country
Flag of CISCIS
Related business
Manufacturer
Unknown
Mission
Spacecraft
Bus & Motor
Unknown
Mass
Unknown
Launch date (UTC)
1981-06-04 (45 years ago)
Launch vehicle
Unknown
Launch site
Plesetsk Missile And Space Complex (PKMTR)
Object type
Payload
Rocket body
Debris
Shape & HBR
Unknown shape, 0.1 m
Radar Cross Section
Medium (>0.1 m² and <1 m²)

Expand to show TLE details & history
Last TLE update: 10 hours ago

TLE from 10 hours ago
0 COSMOS 1275 DEB
1 17792U 81053LN  26238.04603490  .00001434  00000-0  75094-3 0  9990
2 17792  82.9542 196.0757 0015227  28.1093 103.6471 14.13622570106508
Epoch: 2026-08-26T01:06Z
TLE epoch observation values (Epoch: 2026-08-26T01:06:17.415Z)
Latitude
47.69126°
Longitude
17.43566°
Altitude
857.05 km
Speed
7.427 km/s
True Right ascension
00h 33m 15s
True Declination
47° 31' 21"
Sunlit
Object was in daylight at epoch
Visualization orbit readout
Latitude
Unknown
Longitude
Unknown
Altitude
Unknown
Speed
Unknown
Apparent Right ascension
Unknown
Apparent Declination
Unknown
Sunlit
N/A
Visualization observer readout
Local Sidereal Time
02:11:51
Azimuth
Unknown
Elevation
Unknown
Doppler factor
Unknown
Orbital elements
Apogee altitude
855.094 km
Perigee altitude
833.1 km
Semi-major axis
7,222.234 km
Eccentricity
0.00152
Inclination
82.9542°
RAAN
196.0757°
Arg. of periapsis
28.1093°
True anomaly
103.81659°
Mean anomaly
103.6471°
Eccentric anomaly
103.73185°
Mean motion
3.53619 °/min
Orbital period
101.8 mins
BSTAR
0.00075094
Loading maneuver chart data...
Computing Atmospheric mass density...
Loading historical data...
Loading historical data...
Loading historical data...
Loading historical data...
Loading historical data...
Loading historical data...
Loading historical data...

Documentation

Showing up to 5 results
|